[[{"header":{"parameterUnit":"m.s-1","parameterCategory":1,"la1":30.2991,"la2":30.254,"lo1":-89.0895,"lo2":-89.0444,"dy":0.0017,"dx":0.0017,"nx":28,"ny":28,"refTime":"2025-06-20T03:00:00:Z","depth":0,"parameterNumber":2,"parameterNumberName":"U-component_of_WINDS"},"data":[0,0,0,0,0,0,0,0,0,0,0,0,0,0,0,0,0,0,0,0,0,0,0,0,0,0,0,0,0,0,0,0,0,0,0,0,0,0,0,0,0,0,0,0,0,0,0,0,0,0,0,0,0,0,0,0,0,0,0.6726,0.6728,0,0.6849,0.685,0.6852,0.6883,0.6882,0.6881,0.688,0.7009,0.7013,0.7017,0,0,0,0,0,0,0,0,0,0,0,0,0,0.6522,0.6526,0.6726,0.6728,0.6729,0.6849,0.685,0.6852,0.6883,0.6882,0.6881,0.688,0.7007,0.7012,0.7017,0,0,0,0,0,0,0,0,0,0,0,0,0,0.6624,0.6527,0.6726,0.6759,0.6763,0.6848,0.685,0.6852,0.6883,0.6882,0.6881,0.688,0.7006,0.7012,0.7018,0.708,0,0,0.7037,0.704,0,0,0,0,0,0,0,0,0.6619,0.6632,0.6753,0.6757,0.6762,0.6849,0.6825,0.6929,0.6883,0.6838,0.688,0.6879,0.6957,0.6967,0.6993,0.7086,0.7091,0.7037,0.7041,0.7044,0.7046,0,0,0,0,0,0,0,0.6611,0.6627,0.6775,0.6754,0.676,0.6769,0.6782,0.6845,0.6902,0.6842,0.6844,0.6858,0.6959,0.6987,0.6996,0.7093,0.7037,0.7043,0.7047,0.7049,0.7243,0.7244,0,0,0,0,0,0,0.6598,0.6621,0.6771,0.6779,0.6686,0.6773,0.6788,0.6822,0.6902,0.6913,0.6859,0.6859,0.6976,0.6989,0.7,0.7078,0.7044,0.705,0.7053,0.7242,0.7243,0.7245,0,0,0,0,0,0,0.6594,0.6611,0.6766,0.67,0.6721,0.6778,0.6816,0.6825,0.6853,0.6915,0.6925,0.6876,0.6976,0.6992,0.706,0.7083,0.7052,0.7058,0.724,0.7242,0.7244,0.7233,0,0,0,0,0,0,0.6588,0.661,0.6633,0.6701,0.6724,0.6822,0.6818,0.6829,0.6863,0.6864,0.6934,0.6944,0.6976,0.705,0.7066,0.7091,0.7063,0.7238,0.7241,0.7243,0.7232,0.7235,0.7237,0,0,0,0,0,0.658,0.6626,0.6634,0.6652,0.6754,0.6823,0.6837,0.6872,0.6865,0.6889,0.6929,0.6942,0.7078,0.7057,0.7075,0.7102,0.7237,0.724,0.7243,0.723,0.7234,0.7237,0,0,0,0,0,0,0.656,0.6635,0.6645,0.6713,0.6762,0.6828,0.686,0.6875,0.6927,0.6926,0.6968,0.6984,0.7049,0.7082,0.7058,0.7166,0.7157,0.7164,0.7142,0.7145,0.7148,0.7139,0.7068,0,0,0,0,0,0.6563,0.6612,0.6675,0.673,0.6753,0.6802,0.6834,0.6857,0.6909,0.693,0.6975,0.7025,0.708,0.7114,0.7168,0.7237,0.7252,0.7264,0.7267,0.7269,0.7275,0.7314,0.732,0.7255,0.7255,0.7255,0,0,0.6571,0.6618,0.6646,0.6727,0.6767,0.6817,0.682,0.6873,0.6911,0.6938,0.7005,0.7039,0.7099,0.7168,0.72,0.7198,0.7296,0.7273,0.7274,0.7279,0.7318,0.7324,0.7329,0.7258,0.7257,0.7257,0,0,0.6611,0.6651,0.67,0.674,0.6801,0.6833,0.6845,0.691,0.6933,0.7001,0.7022,0.7068,0.7161,0.7202,0.7236,0.7291,0.7305,0.7307,0.7322,0.7359,0.7364,0.7369,0.7389,0.7395,0.7312,0.7312,0.7312,0,0.6613,0.6689,0.6724,0.6776,0.6811,0.6837,0.6888,0.6926,0.7001,0.7024,0.702,0.7136,0.7179,0.7257,0.7271,0.7297,0.7312,0.7299,0.736,0.7365,0.737,0.739,0.7397,0.7312,0.7312,0.7312,0.7312,0,0.6688,0.6741,0.6774,0.6844,0.6883,0.6934,0.6978,0.7014,0.7033,0.7066,0.7134,0.7186,0.725,0.727,0.729,0.7352,0.7348,0.7352,0.7344,0.7376,0.7395,0.7402,0.7312,0.7312,0.7312,0.7312,0,0,0.6719,0.6808,0.6819,0.6852,0.692,0.6962,0.7015,0.7076,0.7106,0.7157,0.7203,0.728,0.7283,0.7321,0.7346,0.7379,0.742,0.7379,0.7381,0.7384,0.7491,0.7488,0.7496,0.7429,0.7431,0.7432,0.7486,0,0.6767,0.6861,0.6894,0.6972,0.7021,0.7047,0.7093,0.714,0.7173,0.722,0.7256,0.731,0.7311,0.7334,0.7367,0.7407,0.7442,0.7404,0.7473,0.7475,0.7457,0.7506,0.7503,0.7551,0.7494,0.7495,0.7496,0,0.6835,0.6886,0.6968,0.7031,0.7053,0.7093,0.7153,0.7197,0.7252,0.7273,0.7315,0.7337,0.7395,0.7383,0.7463,0.7436,0.7467,0.749,0.7493,0.7501,0.7487,0.7515,0.7567,0.7574,0.7508,0.7507,0.7506,0,0.6849,0.6938,0.6999,0.7026,0.71,0.7128,0.7161,0.7214,0.7249,0.7301,0.7324,0.7383,0.7415,0.746,0.7498,0.7486,0.7574,0.7566,0.7594,0.7593,0.7611,0.7609,0.7669,0.763,0.763,0.763,0.763,0,0.6899,0.6948,0.7006,0.7043,0.71,0.7138,0.7193,0.7227,0.7275,0.732,0.7346,0.7388,0.7435,0.7484,0.7514,0.7575,0.759,0.7609,0.7616,0.7607,0.7604,0.7627,0.7625,0.7632,0.7632,0.7631,0.7631,0,0.6924,0.6964,0.7032,0.7096,0.7114,0.7153,0.7208,0.7246,0.7279,0.7336,0.7352,0.7405,0.7463,0.7505,0.7581,0.7601,0.7667,0.7674,0.7648,0.7652,0.7677,0.7674,0.7753,0.7766,0.7719,0.7719,0.772,0,0.6953,0.6991,0.706,0.7091,0.7123,0.7174,0.7209,0.7249,0.7285,0.735,0.738,0.744,0.749,0.7582,0.7628,0.7686,0.7695,0.7719,0.7704,0.7693,0.7695,0.7692,0.7696,0.7721,0.7721,0.7721,0.7722,0,0.7,0.7018,0.7068,0.7125,0.7166,0.7213,0.7261,0.7285,0.7334,0.7373,0.7432,0.7471,0.7548,0.7607,0.7669,0.7704,0.7721,0.7726,0.7735,0.7726,0.7709,0.7718,0.7654,0.7724,0.7724,0.7724,0.7723,0.7723,0.7028,0.7064,0.7117,0.7172,0.7211,0.7255,0.7293,0.7331,0.7381,0.7446,0.7467,0.7528,0.7582,0.7668,0.7703,0.7752,0.7751,0.7765,0.7769,0.7771,0.7771,0.7701,0.7764,0.7764,0.7764,0.7764,0.7764,0,0.7077,0.7113,0.7162,0.7227,0.727,0.7282,0.7335,0.7371,0.7424,0.7473,0.7521,0.7589,0.7647,0.7697,0.7757,0.7786,0.7796,0.7801,0.7799,0.7807,0.7768,0.7754,0.7792,0.7792,0.7792,0.7792,0.7792,0.7792,0.7107,0.7168,0.7192,0.7273,0.7308,0.7368,0.7397,0.7438,0.7477,0.7551,0.7599,0.7631,0.768,0.7744,0.7798,0.7811,0.7832,0.7835,0.785,0.7813,0.7809,0.7806,0.7793,0.7839,0.7839,0.7884,0.7885,0.7885]},{"header":{"parameterUnit":"m.s-1","parameterCategory":1,"la1":30.2991,"la2":30.254,"lo1":-89.0895,"lo2":-89.0444,"dy":0.0017,"dx":0.0017,"nx":28,"ny":28,"refTime":"2025-06-20T03:00:00:Z","depth":0,"parameterNumber":3,"parameterNumberName":"V-component_of_WINDS"},"data":[0,0,0,0,0,0,0,0,0,0,0,0,0,0,0,0,0,0,0,0,0,0,0,0,0,0,0,0,0,0,0,0,0,0,0,0,0,0,0,0,0,0,0,0,0,0,0,0,0,0,0,0,0,0,0,0,0,0,1.6699,1.6699,0,1.6659,1.6659,1.6658,1.6645,1.6645,1.6646,1.6646,1.6603,1.6602,1.6601,0,0,0,0,0,0,0,0,0,0,0,0,0,1.6761,1.676,1.6699,1.6699,1.6698,1.6659,1.6659,1.6658,1.6645,1.6645,1.6646,1.6646,1.6604,1.6602,1.6601,0,0,0,0,0,0,0,0,0,0,0,0,0,1.6729,1.676,1.6699,1.6687,1.6686,1.6659,1.6659,1.6658,1.6645,1.6645,1.6646,1.6646,1.6604,1.6602,1.66,1.6583,0,0,1.6594,1.6594,0,0,0,0,0,0,0,0,1.6731,1.6727,1.669,1.6688,1.6686,1.6658,1.6665,1.6633,1.6645,1.6661,1.6646,1.6646,1.6621,1.6618,1.6609,1.6581,1.6579,1.6594,1.6593,1.6592,1.6592,0,0,0,0,0,0,0,1.6733,1.6728,1.6683,1.6689,1.6687,1.6683,1.6678,1.6659,1.664,1.6659,1.6658,1.6654,1.662,1.6611,1.6608,1.6578,1.6594,1.6593,1.6591,1.6591,1.653,1.6529,0,0,0,0,0,0,1.6738,1.673,1.6685,1.6682,1.671,1.6681,1.6676,1.6666,1.664,1.6636,1.6653,1.6653,1.6615,1.6611,1.6607,1.6582,1.6592,1.659,1.6589,1.653,1.6529,1.6529,0,0,0,0,0,0,1.6739,1.6734,1.6686,1.6706,1.67,1.668,1.6669,1.6666,1.6657,1.6636,1.6632,1.6648,1.6615,1.661,1.6588,1.6581,1.659,1.6588,1.6531,1.653,1.6529,1.6534,0,0,0,0,0,0,1.6741,1.6735,1.6729,1.6706,1.6699,1.667,1.6668,1.6665,1.6654,1.6653,1.663,1.6626,1.6614,1.6591,1.6586,1.6578,1.6586,1.6531,1.653,1.6529,1.6535,1.6534,1.6533,0,0,0,0,0,1.6743,1.6732,1.6729,1.6723,1.6691,1.6669,1.6665,1.6652,1.6653,1.6646,1.6632,1.6627,1.6582,1.6589,1.6583,1.6575,1.6532,1.653,1.6529,1.6535,1.6534,1.6533,0,0,0,0,0,0,1.6755,1.6729,1.6725,1.6706,1.669,1.6667,1.6658,1.6652,1.6635,1.6635,1.6619,1.6614,1.6593,1.6582,1.659,1.6554,1.6556,1.6554,1.6563,1.6562,1.6561,1.6564,1.6585,0,0,0,0,0,1.6755,1.6741,1.6719,1.6704,1.6696,1.6679,1.6669,1.666,1.6642,1.6635,1.662,1.6602,1.6584,1.6572,1.6554,1.6533,1.6526,1.6524,1.6523,1.6523,1.6521,1.6505,1.6503,1.6526,1.6526,1.6526,0,0,1.6756,1.674,1.6732,1.6706,1.6693,1.6676,1.6673,1.6657,1.6643,1.6633,1.6611,1.6599,1.6578,1.6555,1.6545,1.6545,1.6513,1.6521,1.6521,1.6519,1.6504,1.6502,1.65,1.6525,1.6525,1.6525,0,0,1.6749,1.6736,1.6722,1.6708,1.6687,1.6674,1.6671,1.6648,1.6639,1.6617,1.6608,1.6592,1.6561,1.6546,1.6534,1.6517,1.6511,1.6512,1.6508,1.6493,1.6491,1.6489,1.6481,1.6478,1.651,1.651,1.651,0,1.6753,1.6728,1.6715,1.6698,1.6686,1.6674,1.6658,1.6645,1.6619,1.661,1.6611,1.657,1.6556,1.6528,1.6524,1.6515,1.6509,1.6514,1.6493,1.6491,1.6489,1.6481,1.6478,1.651,1.651,1.651,1.651,0,1.6732,1.6715,1.6706,1.6681,1.6667,1.6651,1.6633,1.6621,1.6613,1.66,1.6576,1.6557,1.6534,1.6527,1.6519,1.6497,1.6498,1.6496,1.6497,1.6487,1.6479,1.6476,1.651,1.651,1.651,1.651,0,0,1.6733,1.6699,1.6695,1.6682,1.6657,1.6643,1.6624,1.6602,1.659,1.6572,1.6555,1.6528,1.6525,1.6511,1.6501,1.6488,1.6473,1.6487,1.6487,1.6484,1.6444,1.6445,1.6441,1.6468,1.6468,1.6467,1.6445,0,1.6721,1.6689,1.6675,1.6648,1.6631,1.6618,1.6602,1.6584,1.657,1.6552,1.6537,1.6517,1.6516,1.6507,1.6494,1.6478,1.6464,1.6479,1.645,1.6449,1.6455,1.6438,1.6439,1.6419,1.6442,1.6441,1.6441,0,1.6704,1.6685,1.6657,1.663,1.6622,1.6608,1.6584,1.6568,1.6545,1.6536,1.652,1.6509,1.6487,1.649,1.6458,1.6469,1.6456,1.6445,1.6444,1.644,1.6444,1.6431,1.6413,1.6409,1.6436,1.6437,1.6437,0,1.6705,1.6672,1.665,1.664,1.6609,1.6599,1.6585,1.6563,1.6549,1.6528,1.6518,1.6495,1.6481,1.6462,1.6445,1.6449,1.6414,1.6416,1.6404,1.6404,1.6396,1.6397,1.6374,1.639,1.639,1.639,1.6391,0,1.6693,1.6676,1.665,1.6636,1.6615,1.6598,1.6577,1.6563,1.6542,1.6524,1.6512,1.6495,1.6474,1.6453,1.6439,1.6413,1.6408,1.6398,1.6394,1.6399,1.6399,1.6389,1.639,1.639,1.639,1.639,1.639,0,1.6691,1.6673,1.6648,1.662,1.6612,1.6598,1.6573,1.6558,1.6543,1.652,1.6514,1.649,1.6465,1.6445,1.6413,1.6403,1.6375,1.6372,1.6383,1.638,1.6368,1.6369,1.6337,1.633,1.6353,1.6353,1.6352,0,1.6684,1.667,1.664,1.6627,1.6614,1.6593,1.6578,1.6559,1.6544,1.6515,1.6503,1.6477,1.6455,1.6415,1.6394,1.6368,1.6363,1.6353,1.6359,1.6362,1.636,1.6361,1.6358,1.6353,1.6352,1.6352,1.6352,0,1.6673,1.6664,1.6644,1.6619,1.6601,1.6581,1.656,1.655,1.6527,1.651,1.6484,1.6467,1.6432,1.6405,1.6377,1.6361,1.6352,1.635,1.6346,1.6349,1.6355,1.6349,1.6379,1.6351,1.6351,1.6351,1.6351,1.6351,1.6668,1.6653,1.6629,1.6605,1.6587,1.6568,1.6551,1.6533,1.6511,1.6482,1.6472,1.6444,1.6418,1.6379,1.6362,1.6339,1.6339,1.6333,1.6331,1.6329,1.6328,1.6359,1.6334,1.6334,1.6334,1.6334,1.6334,0,1.6654,1.6637,1.6616,1.6586,1.6567,1.656,1.6536,1.6519,1.6495,1.6472,1.645,1.6418,1.6391,1.6367,1.6338,1.6324,1.6318,1.6316,1.6317,1.6313,1.6331,1.6337,1.6321,1.6321,1.6321,1.6321,1.6321,1.6321,1.6645,1.662,1.6607,1.6572,1.6554,1.6527,1.6513,1.6494,1.6475,1.644,1.6417,1.6401,1.6377,1.6345,1.6319,1.6312,1.6301,1.63,1.6292,1.631,1.6312,1.6313,1.6319,1.6299,1.6298,1.6275,1.6275,1.6275]}]]